Current Weather Conditions: station 62114

sailwx.info

See reports from other nearby stations

no recent reports received from weather station ID 62114

Tides Pressure Air temp Water temp Dewpoint Dewpoint depression Visibility Wind speed Wind direction Waves Ship positions
date/time (UTC)wind fromknots sea level pressurealtimeterstation pressurevisibilityair tempwater tempwave heightnotes
2018-Feb-24 07:00 170 22 4.4
2018-Feb-24 06:00 150 24 4.5
2018-Feb-24 05:00 180 22 4.5
2018-Feb-24 04:00 160 22 4.5
2018-Feb-24 03:00 170 25 4.5
2018-Feb-24 02:00 170 24 4.8
2018-Feb-24 01:00
2018-Feb-24 00:00
2018-Feb-23 23:00 180 25 5.3
2018-Feb-23 22:00 170 22 5.2
2018-Feb-23 21:00 170 22 5.0
2018-Feb-23 20:00 170 20 5.3
2018-Feb-23 19:00 170 20 5.2
2018-Feb-23 18:00 180 19 4.8
2018-Feb-23 17:00 190 17 5.0
2018-Feb-23 16:00 190 19 5.0
2018-Feb-23 15:00 200 20 5.0
2018-Feb-23 14:00 200 20 5.0
2018-Feb-23 13:00 200 20 4.8
2018-Feb-23 12:00 200 24 4.8
2018-Feb-23 11:00 200 24 4.7
2018-Feb-23 10:00 200 25 4.6
2018-Feb-23 09:00 190 24 4.8
2018-Feb-23 08:00 190 21 4.6
2018-Feb-23 07:00 190 20 4.7
2018-Feb-23 06:00 200 18 4.7
2018-Feb-23 05:00 200 18 4.8
2018-Feb-23 04:00 200 20 4.8
2018-Feb-23 03:00 200 20 4.8
2018-Feb-23 02:00 200 20 4.9
2018-Feb-23 01:00 200 19 4.9
2018-Feb-23 00:00 190 19 4.9
2018-Feb-22 23:00 200 20 5.0
2018-Feb-22 22:00 200 20 4.8
2018-Feb-22 21:00 200 20 5.5
2018-Feb-22 20:00 190 17 5.4
2018-Feb-22 19:00 190 14 5.3
2018-Feb-22 18:00 190 17 5.5
2018-Feb-22 17:00 180 15 5.5
2018-Feb-22 16:00 190 18 5.6
2018-Feb-22 15:00 190 15 5.8
2018-Feb-22 14:00 190 17 5.9
2018-Feb-22 13:00 180 18 6.1
2018-Feb-22 12:00 180 17 6.4
2018-Feb-22 11:00 180 17 6.2
2018-Feb-22 10:00 180 14 6.2
2018-Feb-22 09:00 190 13 5.6
2018-Feb-22 08:00 180 12 5.6